Weather Roundup
Issued by NWS Chicago, IL

Home | Current Version | Previous Version | Graphics & Text | Print | Product List | Glossary On
Versions: 1 2 3 4 5 6 7 8 9 10 11 12 13 14 15 16 17 18 19 20 21 22 23 24 25 26 27 28 29 30 31 32 33 34 35 36 37 38 39 40 41 42 43 44 45 46 47 48 49 50
000
NZUS59 KLOT 231558
HRRLOT

CHICAGO AREA WEATHER ROUNDUP
NATIONAL WEATHER SERVICE CHICAGO/ROMEOVILLE IL
1100 AM CDT SAT AUG 23 2014

NOTE: "FAIR" INDICATES FEW OR NO CLOUDS BELOW 12,000 FEET WITH NO
SIGNIFICANT WEATHER AND/OR OBSTRUCTIONS TO VISIBILITY.

* THESE STATIONS ARE NOT UNDER NWS QUALITY CONTROL. THEY ALSO MAY NOT
  REPORT WEATHER SUCH AS PRECIPITATION OR FOG.

ILZ005-006-012>014-019>023-231700-
NORTHEAST ILLINOIS

CITY           SKY/WX    TMP DP  RH WIND       PRES   REMARKS
OHARE          CLOUDY    82  74  76 S5        30.00R HX  88
MIDWAY         CLOUDY    85  73  67 S5        30.00R HX  91
AURORA         CLOUDY    84  74  71 S6        30.01R HX  91
WAUKEGAN       CLOUDY    77  71  82 CALM      30.01R
DUPAGE AIRPORT CLOUDY    83  73  72 SE3       30.01R HX  89
WHEELING       CLOUDY    83  73  72 NE3       30.02R HX  89
NORTHERLY IS     N/A     74  72  93 N5          N/A
$$

WIZ051-052-058>065-066-070>072-231700-
SOUTHEAST WISCONSIN

CITY           SKY/WX    TMP DP  RH WIND       PRES   REMARKS
MILWAUKEE      FOG       72  70  93 E3        30.03R VSB 3/4
KENOSHA*       CLOUDY    74  73  97 E5        30.03R FOG
RACINE*        CLOUDY    73  71  93 E6        30.05R FOG
WAUKESHA       FOG       72  72 100 E3        30.04R VSB 1
$$

INZ001>003-010>013-019-020-231700-
NORTHWEST INDIANA

CITY           SKY/WX    TMP DP  RH WIND       PRES   REMARKS
GARY*          PTSUNNY   84  73  70 CALM      30.00R HX  91
MICHIGAN CITY* NOT AVBL
RENSSELAER*    NOT AVBL
VALPARAISO     MOSUNNY   83  73  72 VRB5      30.02R HX  89
$$

LMZ740>746-231700-
SOUTHERN LAKE MICHIGAN

STATION/POSITION TIME  SKY/WX   TEMP WIND        PRES    VSBY
                                AIR  DIR/SP/G
                 (UTC)          (F)  (DEG/KT/KT) (MB)    (MI)
HARRISON CRIB    1500            72   30/  3/  4   N/A
BURNHAM HARBOR   1500            74   50/  3/  5   N/A
CALUMET HARBOR   1500            75   40/  4/  4 1014.7R
BURNS HARBOR     NOT AVBL
MICHIGAN CITY    1500            77  350/  4/  5   N/A
$$

ABBREVIATIONS USED IN REMARKS
   TC - TEMPERATURE IN CELSIUS
  WCI - WIND CHILL INDEX
   HX - HEAT INDEX
  VSB - VISIBILITY
$$


USA.gov is the U.S. government's official web portal to all federal, state and local government web resources and services.